| time (UTC) | temp F | wind direction | speed knots | gust knots | rain 1hr in | rain 24hr in | rain mn in | humidity % | barometer mb |
| 20260504081604 | 41 | 278 | 0.0 | 0.0 | 0.00 | 0.00 | 0.00 | 97 | 1017.1 |
| 20260504050113 | 43 | 278 | 0.0 | 0.0 | 0.00 | 0.00 | 0.00 | 94 | 1018.1 |
| 20260504044555 | 43 | 278 | 0.0 | 0.0 | 0.00 | 0.00 | 0.00 | 93 | 1018.2 |
| 20260504043107 | 43 | 278 | 0.0 | 0.0 | 0.00 | 0.00 | 0.00 | 93 | 1018.2 |
| 20260504041553 | 44 | 278 | 0.0 | 0.0 | 0.00 | 0.00 | 0.00 | 92 | 1018.3 |
| 20260504040058 | 44 | 278 | 0.0 | 0.0 | 0.00 | 0.00 | 0.00 | 92 | 1018.2 |
| 20260504034554 | 44 | 278 | 0.0 | 0.9 | 0.00 | 0.00 | 0.00 | 91 | 1018.3 |
| 20260504033039 | 44 | 278 | 0.0 | 0.0 | 0.00 | 0.00 | 0.00 | 91 | 1018.2 |
| 20260504031534 | 45 | 278 | 0.0 | 0.0 | 0.00 | 0.00 | 0.00 | 90 | 1018.5 |
| 20260504030017 | 45 | 278 | 0.0 | 0.0 | 0.00 | 0.00 | 0.00 | 89 | 1018.5 |
| 20260504024517 | 46 | 278 | 0.0 | 0.0 | 0.00 | 0.00 | 0.00 | 88 | 1018.6 |
| 20260504023006 | 46 | 278 | 0.0 | 0.0 | 0.00 | 0.00 | 0.00 | 87 | 1018.4 |
| 20260504021505 | 47 | 278 | 0.0 | 0.0 | 0.00 | 0.00 | 0.00 | 86 | 1018.2 |
| 20260504020005 | 48 | 278 | 0.0 | 0.0 | 0.00 | 0.00 | 0.00 | 84 | 1018.1 |
| 20260504014505 | 49 | 278 | 0.0 | 0.0 | 0.00 | 0.00 | 0.00 | 83 | 1018.2 |
| 20260504013010 | 50 | 278 | 0.0 | 0.0 | 0.00 | 0.00 | 0.00 | 81 | 1017.9 |
| 20260504011503 | 51 | 278 | 0.0 | 0.0 | 0.00 | 0.00 | 0.00 | 79 | 1017.8 |
| 20260504010003 | 53 | 278 | 0.0 | 0.0 | 0.00 | 0.00 | 0.00 | 76 | 1017.8 |
| 20260504004505 | 55 | 278 | 0.0 | 0.0 | 0.00 | 0.00 | 0.00 | 73 | 1017.6 |
| 20260504003044 | 57 | 278 | 0.0 | 0.0 | 0.00 | 0.00 | 0.00 | 69 | 1017.4 |
| 20260504001551 | 59 | 278 | 0.0 | 0.0 | 0.00 | 0.00 | 0.00 | 65 | 1017.5 |
| 20260504000039 | 62 | 278 | 0.0 | 0.0 | 0.00 | 0.00 | 0.00 | 60 | 1017.6 |
| 20260503234528 | 65 | 278 | 0.0 | 0.9 | 0.00 | 0.00 | 0.00 | 54 | 1017.6 |
| 20260503233027 | 66 | 275 | 0.0 | 0.9 | 0.00 | 0.00 | 0.00 | 51 | 1017.7 |
| 20260503231525 | 66 | 294 | 0.0 | 2.6 | 0.00 | 0.00 | 0.00 | 48 | 1017.9 |
| 20260503230023 | 67 | 309 | 0.9 | 5.2 | 0.00 | 0.00 | 0.00 | 46 | 1018.2 |
| 20260503224521 | 69 | 249 | 0.9 | 3.5 | 0.00 | 0.00 | 0.00 | 45 | 1018.4 |
| 20260503223019 | 68 | 257 | 0.9 | 4.3 | 0.00 | 0.00 | 0.00 | 44 | 1018.5 |
| 20260503221517 | 70 | 211 | 0.9 | 4.3 | 0.00 | 0.00 | 0.00 | 44 | 1018.6 |
| 20260503220005 | 69 | 319 | 0.0 | 3.5 | 0.00 | 0.00 | 0.00 | 43 | 1018.5 |
| 20260503214513 | 69 | 328 | 0.0 | 3.5 | 0.00 | 0.00 | 0.00 | 45 | 1018.6 |
| 20260503213059 | 68 | 25 | 0.9 | 5.2 | 0.00 | 0.00 | 0.00 | 44 | 1018.8 |
| 20260503211557 | 68 | 279 | 0.9 | 5.2 | 0.00 | 0.00 | 0.00 | 49 | 1019.0 |
| 20260503210058 | 67 | 306 | 1.7 | 6.1 | 0.00 | 0.00 | 0.00 | 47 | 1019.2 |
| 20260503204602 | 67 | 219 | 0.0 | 2.6 | 0.00 | 0.00 | 0.00 | 49 | 1019.4 |
| 20260503203058 | 67 | 287 | 0.0 | 5.2 | 0.00 | 0.00 | 0.00 | 47 | 1019.7 |
| 20260503201547 | 67 | 322 | 1.7 | 4.3 | 0.00 | 0.00 | 0.00 | 50 | 1020.0 |
| 20260503200042 | 67 | 265 | 0.9 | 4.3 | 0.00 | 0.00 | 0.00 | 51 | 1020.3 |
| 20260503194529 | 67 | 318 | 0.9 | 3.5 | 0.00 | 0.00 | 0.00 | 50 | 1020.6 |
| 20260503193030 | 66 | 186 | 1.7 | 7.0 | 0.00 | 0.00 | 0.00 | 49 | 1020.9 |
| 20260503191529 | 66 | 171 | 0.0 | 5.2 | 0.00 | 0.00 | 0.00 | 50 | 1021.2 |
| 20260503190023 | 65 | 296 | 1.7 | 6.1 | 0.00 | 0.00 | 0.00 | 48 | 1021.4 |
| 20260503184527 | 65 | 254 | 0.9 | 3.5 | 0.00 | 0.00 | 0.00 | 48 | 1021.5 |
| 20260503183024 | 64 | 261 | 1.7 | 7.0 | 0.00 | 0.00 | 0.00 | 51 | 1021.8 |
| 20260503181520 | 64 | 254 | 2.6 | 8.7 | 0.00 | 0.00 | 0.00 | 53 | 1021.9 |
| 20260503180002 | 64 | 327 | 0.9 | 3.5 | 0.00 | 0.00 | 0.00 | 53 | 1022.2 |
| 20260503174558 | 63 | 55 | 0.0 | 6.1 | 0.00 | 0.00 | 0.00 | 54 | 1022.4 |
| 20260503173131 | 62 | 322 | 1.7 | 4.3 | 0.00 | 0.00 | 0.00 | 52 | 1022.4 |
| 20260503171548 | 61 | 257 | 0.0 | 6.1 | 0.00 | 0.00 | 0.00 | 51 | 1022.7 |